User: anonymous   Login
Location: Unspecified
(0.0000°N, 0.0000°E)
Time: 10:25:51
(UTC+00:00)
Language:

PSLV R/B - Orbit

View from above orbital plane
View from above orbital plane
View from above satellite
View from above satellite

Ground track
Ground track

The orbit data is extracted from the following two-line orbital elements,

1 41791U 16059J   21340.90323189  .00000084  00000-0  26169-4 0  9998
2 41791  98.0218  35.6386 0043876  99.0111 261.6060 14.61049854277078
Epoch (UTC): 06 December 2021 21:40:39
Eccentricity: 0.0043876
inclination: 98.0218°
perigee height: 659 km
apogee height: 721 km
right ascension of ascending node: 35.6386°
argument of perigee: 99.0111°
revolutions per day: 14.61049854
mean anomaly at epoch: 261.6060°
orbit number at epoch: 27707

The dashed part of the orbit path shows where the satellite is in the earth's shadow,  

DLR